Lid_Strength_Index
5 5 6 5 5 6 6 6 6 5 5 4 4 4 4 4 4 5 6 3 5 7 7 6 6 7 7 7 9 7 7 7 8 11 11 11 11 10 11 10 11 12 13 13 12 13 14 7 7 11 9 7 6 6
5 5 6 5 5 6 6 6 5 6 5 4 4 4 4 4 4 4 7 5 4 6 7 5 5 5 5 6 7 7 8 8 8 9 10 9 11 10 12 14 9 13 12 13 12 12 8 6 7 6 5 7 6 6
5 5 6 5 6 6 6 6 5 5 5 5 5 4 5 5 4 5 7 6 6 7 7 6 6 4 3 4 4 9 8 6 7 8 9 8 11 9 13 12 11 10 8 11 11 9 8 7 6 6 5 6 5 4
5 5 5 5 6 6 6 6 5 5 5 5 5 5 5 5 5 5 7 6 6 7 10 8 4 6 4 5 4 4 6 6 6 7 9 9 10 7 10 9 11 9 9 10 10 9 8 7 6 6 5 5 5 4
5 5 5 5 5 6 6 6 6 6 6 5 5 5 5 5 5 5 6 6 5 7 10 9 6 5 5 5 5 5 6 6 7 8 9 9 7 8 8 8 9 8 10 11 12 8 9 8 6 5 6 6 5 5
5 5 5 5 5 6 6 6 6 6 6 5 5 5 5 5 5 6 6 4 4 4 8 12 7 7 6 5 6 5 6 6 6 7 8 7 6 8 10 10 7 6 6 6 8 6 6 6 5 4 5 5 5 5
5 5 5 5 5 6 6 6 6 6 6 6 6 5 5 5 6 8 8 6 6 6 9 11 10 6 5 5 5 6 5 6 6 7 8 8 7 7 9 11 7 6 5 5 5 6 7 6 7 5 5 4 4 4
5 5 5 6 6 6 6 6 6 6 6 6 5 5 5 5 6 8 5 5 5 7 8 11 10 9 5 7 7 3 5 5 6 6 6 7 7 7 10 7 6 5 5 5 5 5 5 5 4 4 4 4 5 5
5 5 6 6 6 6 6 6 6 6 6 6 5 5 6 7 8 6 4 5 5 6 10 9 10 11 5 6 5 5 4 8 6 7 7 7 8 11 8 7 6 6 5 6 5 4 4 5 5 4 4 4 5 5
5 6 6 6 7 6 6 6 6 6 6 6 7 8 9 6 4 4 6 8 7 7 7 10 7 10 6 7 7 7 7 9 12 9 6 9 9 6 5 5 5 4 5 4 6 6 6 6 5 5 4 5 5 5
5 6 6 7 7 6 6 6 6 6 6 8 8 8 5 4 6 7 9 9 9 10 9 8 7 8 4 9 9 6 8 9 12 10 10 10 10 7 5 5 4 4 4 4 4 4 4 4 5 5 5 4 4 5
6 6 6 6 6 6 6 6 6 7 7 7 8 6 6 7 8 10 10 8 9 10 6 8 7 6 6 5 8 7 8 8 11 7 10 11 8 6 6 5 5 4 4 4 3 4 4 4 4 4 5 5 4 4
6 6 7 6 6 6 6 6 6 6 6 6 8 9 9 9 13 11 12 10 10 7 6 6 8 6 6 6 8 9 10 10 6 9 10 9 7 6 6 5 5 4 4 4 3 3 3 3 3 4 5 4 4 4
6 7 6 7 7 7 6 6 6 6 8 9 11 15 12 11 10 9 8 7 5 5 6 6 7 8 7 9 8 11 9 8 11 12 11 8 8 7 6 5 5 5 4 4 4 4 4 4 4 4 4 4 4 4
6 6 7 7 7 6 6 6 6 6 8 10 10 14 11 8 7 6 4 5 4 4 5 7 7 7 9 10 9 10 12 12 11 13 10 8 7 6 6 7 5 5 5 4 4 4 4 4 4 4 4 3 3 4
6 7 8 7 6 6 6 6 7 7 8 9 9 9 7 7 6 6 5 6 4 4 4 5 8 9 10 10 11 12 13 14 12 9 7 6 6 6 6 5 5 5 5 5 4 4 4 4 4 4 3 3 3 3
7 8 7 6 6 6 6 7 7 9 9 10 9 7 7 6 6 5 5 5 3 5 8 8 11 11 9 11 12 10 12 10 8 7 7 6 6 6 6 5 5 5 4 4 4 4 4 4 4 4 5 4 3 3
7 6 6 6 6 6 7 8 8 9 10 8 9 7 5 4 5 5 4 3 4 5 6 8 7 10 11 12 11 9 8 6 6 6 6 6 6 5 5 5 5 5 5 4 4 4 4 4 4 4 4 4 4 4
6 6 5 5 6 7 9 8 7 9 8 7 5 4 4 4 4 3 3 3 3 3 5 7 9 10 10 8 8 7 7 7 7 7 7 7 6 6 6 5 5 5 5 4 4 4 4 3 4 3 4 4 4 4
5 5 5 5 6 7 9 7 5 8 8 5 4 5 5 5 4 4 4 4 5 6 8 9 9 8 7 7 7 6 6 6 7 8 9 8 7 8 6 6 5 4 4 4 4 5 4 4 3 3 3 3 4 4
6 6 5 6 6 6 6 6 7 5 5 6 5 5 6 5 5 6 6 4 6 7 8 6 6 6 6 5 5 5 5 6 8 8 8 8 7 6 5 4 4 4 5 5 5 4 5 4 3 3 3 3 4 4
5 5 5 5 7 6 7 5 5 5 6 6 6 5 7 7 7 6 5 7 7 6 6 6 5 5 5 6 6 6 6 6 6 7 7 6 6 5 5 4 5 5 5 4 4 4 4 3 3 3 3 3 4 4
5 5 6 6 7 9 9 4 7 6 8 7 6 8 8 7 6 4 8 6 6 4 4 4 6 6 7 6 5 5 5 5 6 5 6 5 4 4 4 4 3 4 4 4 3 3 3 4 4 3 3 3 4 4
5 6 7 8 8 10 5 7 6 7 7 8 8 9 8 8 6 8 9 7 5 4 6 7 7 8 7 6 5 5 4 4 4 4 4 5 5 5 4 4 3 3 3 3 3 3 3 3 5 3 2 3 3 3
11 10 8 13 7 8 8 8 8 8 10 8 9 9 8 7 10 10 10 8 7 7 7 8 7 7 7 7 5 4 3 3 5 5 4 4 4 4 4 3 3 3 2 3 3 3 3 2 2 2 3 3 3 3
13 8 10 9 8 8 8 9 8 9 9 9 8 7 7 9 11 11 10 8 7 7 7 7 8 8 7 6 5 5 4 3 3 5 4 3 3 4 4 4 4 3 2 2 2 3 3 3 3 3 3 4 6 2
12 10 7 5 5 6 7 7 7 8 10 10 8 9 9 12 12 10 8 7 7 6 6 6 6 6 6 5 4 3 3 2 3 3 3 2 2 2 3 4 4 3 1 1 2 2 2 2 3 3 3 3 2 2
8 7 9 7 7 6 8 9 9 10 9 7 7 10 11 10 11 8 7 6 7 6 6 6 4 4 4 3 3 3 3 2 2 2 2 2 1 1 1 1 2 6 1 1 1 2 2 2 2 2 2 2 2 2
8 7 6 7 7 7 7 9 9 8 6 6 8 9 10 7 6 6 7 6 6 7 6 5 4 3 3 2 2 2 3 3 4 5 5 5 4 3 2 2 2 2 2 4 7 2 1 2 1 1 1 2 2 2
7 5 7 7 8 9 8 7 8 6 5 5 7 7 7 7 7 6 6 6 6 6 3 3 3 3 4 4 4 3 2 2 3 4 4 4 3 2 2 2 2 2 2 2 2 3 7 3 4 1 2 2 2 2
5 5 7 7 8 7 7 6 6 5 7 7 7 8 8 7 6 2 4 3 3 3 3 3 4 3 3 4 4 4 5 2 2 2 2 1 1 1 1 1 1 2 1 1 1 2 2 2 2 2 2 2 2 2
6 7 8 9 9 6 6 6 7 8 8 8 8 6 6 7 7 5 2 2 3 4 4 4 3 4 2 2 2 2 6 2 2 2 3 1 1 1 1 1 1 2 1 1 2 2 1 2 2 2 2 2 2 2
7 7 8 8 8 8 6 7 7 8 7 7 7 6 6 7 8 4 1 1 2 3 3 3 2 2 2 1 1 2 4 1 6 11 11 11 11 6 2 1 1 1 1 1 2 2 2 2 2 2 2 2 2 2